GFSWCAN_con_sbcape_000.txt.gz
CAPE
3 11 0 3 13 3 11 14 15 19 22 22 23 22 11 16 9 1 1 2 1 0 0 0 0 0 3 18 81 81 165 96 55 0 0 0 7 36 275 260 422 189 295 84 161 123 60 299 100 49 1461 1112 1462 1349
19 19 1 5 4 3 7 17 24 25 15 6 16 22 20 19 17 4 3 1 2 0 0 0 0 0 0 0 1 22 14 132 112 140 95 123 133 138 242 89 149 214 287 421 647 719 958 1454 1468 1414 1204 1203 1498 1226
42 29 2 16 16 14 1 2 2 7 12 13 14 12 9 11 15 10 1 5 7 0 0 0 0 0 0 0 0 0 30 96 125 94 2 26 133 7 236 67 155 239 235 482 368 330 747 693 935 843 855 883 937 663
6 2 14 15 13 8 17 14 9 10 8 7 11 4 13 13 11 9 6 4 10 0 0 12 0 0 0 0 0 0 0 3 59 57 3 1 4 0 5 27 8 4 149 117 107 405 40 563 776 940 755 673 514 277
1 1 19 12 11 22 20 15 13 9 7 7 7 8 10 8 11 10 6 4 6 5 0 0 0 0 0 0 0 0 0 0 9 4 11 12 29 13 1 2 5 9 39 127 82 618 417 449 1134 811 634 439 333 116
0 13 5 11 9 14 11 9 9 8 6 5 4 5 6 8 3 3 6 2 10 8 7 0 10 0 0 0 0 0 0 0 0 39 42 37 67 23 6 2 29 132 31 518 308 521 671 323 259 111 286 178 148 127
7 5 9 15 25 12 14 13 10 7 5 2 5 7 2 1 1 6 4 2 0 9 8 1 16 6 0 0 0 0 0 0 0 41 55 42 68 14 0 0 0 96 55 36 132 5 165 12 253 435 308 183 148 130
5 0 0 12 19 9 11 6 4 3 1 0 1 1 0 0 0 0 1 0 3 4 9 11 5 26 28 33 32 2 6 16 14 29 57 101 108 82 4 1 0 10 10 4 0 21 70 0 534 517 485 262 77 73
4 4 0 11 10 14 10 6 1 0 0 0 0 0 1 4 32 49 0 0 1 15 30 21 1 49 70 38 82 94 71 46 23 22 28 60 81 79 17 24 11 4 17 27 12 0 13 0 100 626 621 548 226 68
4 8 1 6 7 9 7 3 0 0 0 0 0 5 69 40 0 0 3 33 44 16 13 13 11 17 20 36 103 222 98 43 51 37 37 94 67 91 46 51 95 120 31 31 77 88 271 643 468 666 646 373 187 52
2 5 4 4 5 4 5 4 0 0 0 1 17 4 9 0 7 44 45 30 42 35 15 9 15 25 20 22 90 141 193 111 87 64 44 35 37 85 167 225 344 141 70 170 77 197 370 708 867 651 452 298 200 54
2 5 9 5 2 0 1 4 3 0 0 0 0 0 4 16 47 50 56 48 32 33 28 20 64 57 15 52 186 173 169 119 33 42 41 52 119 227 38 113 199 195 186 272 166 173 234 720 946 740 526 316 146 104
4 2 8 4 0 0 0 0 2 0 0 10 18 4 26 30 18 23 17 31 65 49 53 83 124 32 160 53 105 209 140 62 77 115 96 78 386 127 68 46 229 172 52 83 162 96 195 985 1037 799 488 143 148 28
8 1 2 1 0 0 0 0 0 0 0 17 6 0 15 20 14 44 50 66 67 53 48 16 47 100 344 189 112 40 93 189 164 85 72 411 492 416 823 166 292 114 162 45 140 408 942 1003 840 649 430 160 6 0
13 0 0 0 0 0 0 0 0 3 8 7 14 0 1 27 14 10 3 5 43 31 22 18 24 169 172 147 129 50 62 66 101 201 278 303 400 350 881 920 938 445 250 865 971 925 856 723 392 165 0 0 0 0
15 2 0 0 0 0 0 0 0 4 11 1 0 0 20 27 8 13 9 27 21 21 27 82 40 14 10 70 67 47 82 55 17 263 356 234 172 352 892 879 847 986 1145 1253 869 551 263 67 1 0 0 0 0 6
1 14 0 0 0 0 0 0 27 8 3 0 1 0 0 6 9 0 0 0 6 23 72 15 7 15 5 42 103 135 127 19 50 266 235 312 319 537 457 532 634 667 617 379 162 40 6 2 2 0 1 0 0 0
21 9 0 0 0 6 22 1 15 0 0 0 0 13 15 14 9 14 25 31 31 50 40 20 19 17 17 13 14 14 20 20 36 32 225 279 397 357 451 231 119 24 19 6 4 3 1 1 1 2 0 0 0 0
22 15 0 0 0 0 7 0 3 4 0 3 1 0 12 35 30 27 39 51 38 1 1 9 16 17 37 30 13 8 10 20 29 31 65 193 243 40 17 22 19 4 0 1 0 0 1 3 2 1 3 1 0 1
20 2 0 0 0 18 0 1 0 0 0 4 4 24 27 30 18 0 0 0 4 10 5 12 20 31 25 21 23 17 16 10 11 17 9 20 10 4 3 4 5 6 6 8 8 10 12 24 27 8 2 7 16 41
8 4 0 0 12 5 2 4 6 7 11 12 49 15 7 0 2 2 25 29 26 32 20 28 28 23 31 9 7 3 2 5 5 1 3 4 8 6 8 7 5 4 1 1 4 14 20 43 49 76 7 27 107 29
9 0 16 0 7 1 0 2 3 10 5 25 16 8 4 3 14 21 25 26 26 23 38 29 25 22 10 4 2 4 2 3 8 1 2 1 6 10 12 17 13 37 38 42 39 49 6 15 16 49 56 61 82 21
0 0 9 0 1 0 0 12 10 16 9 11 6 5 4 16 18 21 21 29 50 29 6 20 8 6 5 2 1 1 1 4 5 8 12 15 22 17 5 3 2 2 2 4 0 0 0 0 0 4 7 3 3 23
0 13 9 12 10 1 2 5 14 15 12 9 7 8 9 14 32 19 11 11 7 5 5 2 5 2 1 2 5 4 2 6 4 4 2 1 3 5 4 3 2 1 1 1 17 0 0 0 0 0 0 3 10 9
0 0 0 0 2 2 4 21 14 15 9 8 6 10 22 28 15 6 7 5 5 3 4 0 0 0 0 0 2 7 4 2 3 3 5 3 5 4 4 4 4 4 2 6 15 6 2 0 0 0 11 15 5 3
8 2 34 4 7 19 22 16 7 9 7 7 20 50 40 21 15 5 11 11 4 1 0 0 0 0 0 0 1 0 0 0 0 3 3 0 0 1 1 2 1 0 0 0 0 0 0 6 17 2 0 0 0 0
15 16 16 14 13 10 13 9 5 4 10 37 44 22 19 21 11 11 21 21 9 0 1 0 18 11 4 9 11 12 8 6 0 0 0 0 3 12 17 24 17 18 24 27 21 15 13 9 9 0 0 0 0 0
15 7 7 7 7 7 4 3 5 26 39 17 7 12 19 18 22 16 13 17 6 3 1 0 0 0 0 1 1 0 0 0 3 0 0 0 0 0 0 0 0 0 0 0 11 13 9 6 2 1 0 0 1 2
3 4 4 3 3 1 23 19 11 8 4 0 7 10 32 14 5 2 0 1 7 1 0 0 0 0 0 0 0 0 0 0 0 0 0 0 0 0 0 0 0 0 0 0 0 0 0 0 0 0 0 0 0 1
14 0 8 18 11 12 18 13 19 17 16 19 21 11 2 9 22 14 15 11 10 5 2 4 3 0 0 0 0 0 0 0 0 0 0 0 0 0 0 0 0 0 0 0 0 0 0 0 0 0 3 17 20 4
37 28 20 24 25 22 27 25 26 26 26 25 29 23 33 24 16 16 17 19 23 24 22 14 7 15 11 5 1 0 0 0 0 0 0 0 0 0 0 0 0 1 1 1 1 4 0 5 12 11 10 6 1 5
32 32 30 33 41 28 39 45 41 33 31 30 37 44 26 58 37 36 32 31 35 31 11 38 32 35 27 18 5 0 0 0 0 0 0 1 5 3 10 7 8 3 3 2 5 14 18 18 19 22 22 23 23 29
75 54 41 49 52 54 53 37 47 58 49 57 44 46 46 58 49 56 33 45 53 41 41 48 42 35 25 32 21 2 0 0 0 0 0 0 0 0 0 0 0 0 0 1 9 16 22 27 23 27 20 25 22 9

GFSWCAN_con_sbcape_006.txt.gz
CAPE
32 34 32 28 15 10 9 11 2 3 11 16 4 4 7 9 6 0 0 0 0 0 0 0 0 0 0 0 0 0 4 1 0 3 0 0 0 0 0 0 14 0 0 0 0 0 0 299 950 587 763 913 587 262
12 27 7 10 3 14 8 4 14 6 11 9 7 4 3 4 6 0 0 0 0 0 0 0 0 0 0 0 0 0 0 0 37 0 0 0 3 0 0 31 0 0 0 31 5 11 203 82 292 564 548 492 365 179
34 3 2 1 11 12 3 17 19 11 11 9 6 7 5 2 3 2 0 0 0 0 0 0 0 0 0 0 0 0 3 10 0 0 0 0 8 0 3 0 0 0 7 25 16 15 33 49 30 260 247 317 265 164
37 15 15 0 14 5 8 11 12 13 15 6 5 7 6 5 2 2 0 0 0 0 0 0 0 0 0 0 0 0 2 0 0 0 0 0 0 0 0 0 0 0 5 0 0 1 14 11 40 0 21 173 135 17
15 18 11 1 10 11 6 16 11 17 14 11 11 10 7 8 13 1 0 0 0 0 0 0 0 0 0 0 0 0 0 0 0 0 0 0 0 2 0 0 0 0 0 0 9 99 13 19 30 60 35 5 18 4
9 23 8 4 2 13 18 5 5 8 9 10 8 6 4 7 3 0 0 0 0 0 0 0 0 0 0 0 0 0 0 0 0 0 0 0 0 7 0 0 74 236 144 38 91 217 165 114 11 18 17 3 0 3
1 15 10 6 2 2 14 6 6 7 6 5 2 1 3 7 0 0 0 0 0 0 2 0 0 0 0 0 0 0 0 0 0 0 0 0 52 36 0 0 11 52 121 7 3 32 29 47 129 117 29 0 0 0
5 7 4 7 1 1 8 4 4 3 1 0 0 0 0 2 0 0 0 0 0 0 1 0 0 0 5 38 33 0 0 0 0 0 0 0 1 2 0 0 0 0 80 127 35 1 6 0 90 105 1 0 0 0
6 1 2 4 1 1 5 4 4 3 0 0 0 0 0 0 0 0 0 0 0 0 7 0 0 0 0 1 0 54 2 0 0 0 0 0 0 0 0 0 0 0 1 0 0 0 20 5 60 49 10 2 0 0
14 0 2 2 5 1 3 4 3 0 0 0 0 0 3 0 4 0 0 0 3 0 1 0 0 0 0 0 0 0 0 27 0 0 0 0 0 0 0 0 0 0 0 0 18 25 0 0 35 55 14 0 0 0
22 1 2 2 3 2 3 2 1 0 0 0 0 3 0 13 0 0 3 0 0 1 0 0 0 0 0 0 0 0 0 0 10 5 0 0 0 0 0 0 0 0 1 0 11 0 12 0 35 23 40 18 0 0
23 4 2 1 3 4 0 0 0 0 0 0 0 0 0 0 0 5 0 0 0 10 2 0 0 0 0 0 0 0 11 0 0 0 0 0 25 24 67 91 109 10 8 20 0 18 48 3 0 3 24 6 0 0
23 6 3 0 2 2 0 0 0 0 0 0 0 0 0 0 0 2 5 14 31 38 19 6 3 3 0 0 1 2 1 1 0 5 19 17 2 9 2 7 41 52 18 19 17 33 224 60 13 134 114 4 0 0
33 8 2 0 0 0 0 0 0 0 0 0 0 0 0 0 0 2 18 0 0 4 2 0 3 1 0 1 1 2 0 0 6 35 56 5 0 0 0 0 29 21 1 23 6 0 245 173 276 235 71 21 0 0
34 7 1 0 0 0 0 0 0 0 0 0 3 0 0 0 0 0 0 0 4 0 0 0 0 0 0 7 2 8 2 38 9 3 1 20 0 0 0 0 0 0 0 89 0 0 265 198 95 38 0 0 0 0
26 12 0 0 0 0 0 0 0 0 0 0 0 0 0 0 0 0 0 0 0 0 0 0 0 0 0 0 9 11 22 20 10 19 2 0 0 0 0 0 0 0 46 55 98 109 132 131 40 0 0 0 0 0
20 0 0 0 0 0 0 0 0 0 0 0 0 0 0 0 1 0 0 1 0 0 9 0 0 0 1 4 0 32 3 8 0 0 0 0 0 0 0 0 7 1 0 0 0 0 0 0 0 0 0 1 0 0
0 0 0 0 0 0 0 0 0 0 0 0 0 0 1 18 18 0 0 9 27 27 25 8 0 4 5 5 3 1 0 0 0 0 0 0 0 0 13 2 3 1 0 0 0 0 0 0 0 0 0 0 0 1
0 0 0 0 0 0 0 0 0 0 0 0 0 2 10 0 0 0 0 0 0 0 0 0 3 8 2 4 1 0 1 2 2 1 2 0 0 2 1 1 0 0 0 0 0 0 0 1 1 1 1 0 1 1
23 0 0 0 0 0 0 0 0 0 0 0 0 0 0 0 0 0 0 1 0 0 0 1 2 2 3 1 2 4 2 1 2 3 4 2 2 1 1 1 2 1 1 1 1 1 1 1 0 0 0 0 0 0
0 0 0 0 0 0 0 0 0 0 0 0 0 0 0 0 0 0 5 0 2 1 0 1 0 0 4 1 1 2 1 1 2 2 4 3 3 2 3 5 3 2 2 1 2 1 1 1 1 0 0 0 0 1
0 0 0 0 0 0 0 0 0 0 0 0 0 1 0 0 5 8 5 0 5 0 3 6 6 9 2 1 0 1 4 2 3 3 3 1 3 3 3 6 5 5 4 2 1 2 2 0 0 0 0 0 0 1
0 0 0 0 0 0 0 0 0 2 0 2 0 0 4 9 6 1 1 3 1 2 1 3 1 1 0 0 1 4 5 2 4 4 4 8 9 3 1 1 0 0 0 0 0 0 0 0 0 0 0 0 0 0
0 0 0 2 0 0 0 8 2 6 2 3 1 4 9 11 4 2 1 1 0 0 1 0 0 0 0 1 2 2 3 1 1 1 1 1 1 1 1 0 0 0 0 0 0 0 0 0 0 0 0 0 0 0
0 0 0 0 0 0 0 4 2 4 0 0 5 6 8 4 2 0 0 0 0 0 0 0 1 1 1 2 2 2 1 0 1 1 1 0 0 0 0 0 0 0 0 0 0 0 0 0 0 0 0 0 0 0
0 0 0 0 1 1 3 1 0 2 1 5 11 13 12 6 1 0 0 0 0 0 0 0 0 1 1 2 2 1 1 0 0 0 0 0 0 0 0 0 0 0 0 0 0 0 0 0 0 0 0 0 0 0
0 1 3 1 2 2 2 2 2 1 1 9 10 7 4 1 0 0 0 0 0 0 7 5 22 1 0 0 0 0 0 0 0 0 0 0 0 0 1 0 0 0 0 1 1 0 0 0 0 0 0 0 0 0
0 0 0 0 2 2 1 0 0 3 8 0 1 4 0 0 0 0 0 0 0 0 0 0 1 0 0 0 0 0 0 0 0 0 0 0 0 0 0 0 0 0 0 0 0 0 0 0 0 0 0 0 0 0
0 0 1 0 0 1 4 12 13 2 0 0 0 0 0 0 0 0 0 0 0 0 0 0 0 0 0 0 0 2 0 0 0 0 0 0 0 0 0 0 0 0 0 0 0 0 0 0 0 0 0 0 0 0
0 0 0 13 5 8 10 6 12 14 8 2 1 1 1 0 0 0 0 0 0 0 0 0 0 0 0 0 0 0 0 0 0 0 0 0 0 0 0 0 0 0 0 0 0 0 0 0 0 0 0 0 0 0
9 14 12 4 4 11 8 11 18 16 16 8 3 1 0 0 0 0 0 0 0 0 0 0 0 0 0 0 0 0 0 0 0 0 0 0 0 0 0 0 0 0 0 0 0 0 0 0 0 0 0 0 0 0
21 15 2 0 4 5 4 12 12 14 5 0 6 0 0 0 0 2 1 0 0 0 0 0 0 0 0 0 0 0 0 0 0 0 0 0 0 0 0 0 0 0 0 0 0 0 0 0 0 0 0 0 0 0
10 1 2 3 5 17 38 25 22 16 7 22 36 17 3 3 4 10 8 0 5 5 2 0 0 1 0 0 0 0 0 0 0 0 0 0 0 0 0 0 0 0 0 0 0 0 0 0 0 0 0 0 0 0

GFSWCAN_con_sbcape_009.txt.gz
CAPE
25 8 5 5 17 3 12 6 12 22 12 7 4 4 2 3 5 0 0 0 0 0 0 0 0 0 0 0 0 0 0 0 0 1 0 0 0 0 0 0 0 0 0 0 0 0 0 215 442 370 303 481 121 246
24 17 12 0 1 3 5 2 25 22 5 10 6 2 2 4 4 0 0 0 0 0 0 0 0 0 0 0 0 0 0 0 0 0 0 0 6 0 0 0 0 0 0 0 0 0 121 49 520 542 525 502 314 303
38 34 16 7 1 10 4 4 18 17 23 23 9 6 3 4 2 0 0 0 0 0 0 0 0 0 0 0 0 0 0 0 0 0 0 0 0 0 0 0 0 0 0 66 0 27 29 22 68 179 388 432 194 92
25 26 17 16 0 11 3 6 20 21 24 16 4 2 6 4 8 1 0 0 0 0 0 0 0 0 0 0 0 0 0 0 0 0 0 0 0 0 0 0 0 0 0 0 0 0 0 41 0 0 235 250 144 1
31 17 10 20 1 7 11 14 14 9 14 4 7 10 10 10 3 1 0 0 0 0 0 0 0 0 0 0 0 0 0 0 0 0 0 0 0 0 0 0 0 0 0 10 18 4 0 13 32 55 55 79 0 0
45 16 20 18 6 3 5 9 14 13 5 9 7 6 5 8 5 0 0 0 0 0 0 0 0 0 0 0 0 0 0 0 0 0 0 0 0 0 0 0 2 44 40 0 149 165 62 44 48 47 36 26 1 0
36 18 15 11 7 2 1 8 10 8 6 4 3 2 1 5 0 0 0 0 0 0 0 0 0 0 0 0 0 0 0 0 0 0 0 0 24 35 0 0 0 55 131 96 167 143 265 201 32 109 34 0 0 0
25 20 12 5 4 3 1 4 6 5 3 2 0 1 1 1 0 0 0 0 0 0 0 0 0 0 0 0 3 0 0 0 0 0 0 0 0 8 0 0 0 0 3 152 111 34 8 0 14 130 0 0 0 0
24 20 9 3 3 5 3 4 6 2 0 0 0 0 0 0 0 0 0 0 0 0 1 1 0 0 0 0 0 3 0 0 0 0 0 0 0 1 0 0 0 2 182 103 21 27 66 37 153 12 0 0 0 0
20 24 12 2 2 5 4 5 3 0 0 0 0 0 1 0 0 0 0 0 4 0 0 0 0 0 0 0 0 0 0 0 5 0 0 0 0 0 3 0 0 0 18 0 0 0 35 29 11 17 11 0 0 0
18 21 11 2 1 3 6 4 0 0 0 0 0 0 0 0 0 0 2 0 0 6 0 0 0 0 0 0 0 0 0 0 0 5 0 0 8 17 0 0 0 0 0 0 0 0 11 0 6 5 0 0 0 0
22 17 10 2 1 1 4 2 0 0 0 0 0 0 0 0 0 0 0 0 0 0 0 0 1 0 0 0 0 0 0 0 8 0 21 2 57 0 0 0 0 1 6 0 0 0 1 0 0 3 1 0 0 0
23 18 8 1 0 1 2 0 0 0 0 0 0 0 0 0 0 0 5 24 15 37 28 10 1 0 0 0 0 0 1 1 0 5 30 124 8 0 0 0 0 0 0 0 0 0 0 3 0 34 9 0 0 0
26 21 3 0 0 0 0 0 0 0 0 0 0 0 0 0 0 0 0 0 1 13 1 0 0 0 0 0 0 16 0 0 8 35 2 0 0 0 0 0 0 0 0 0 2 0 77 4 13 119 45 3 0 0
25 13 0 0 0 0 0 0 0 0 0 0 0 0 0 0 0 0 0 0 0 0 0 0 0 0 0 0 0 7 3 32 12 5 6 15 0 0 0 0 0 0 0 1 9 0 58 63 13 0 0 0 0 0
17 7 0 0 0 0 0 0 0 0 0 0 0 0 0 0 0 0 0 0 0 0 0 0 0 0 0 0 3 4 5 19 12 10 3 0 0 0 0 0 0 0 0 0 0 100 108 83 0 0 0 0 0 0
2 0 0 0 0 0 0 0 0 0 0 0 0 0 0 0 0 0 0 11 0 0 1 0 0 0 1 2 0 19 6 4 0 0 0 0 0 0 0 0 2 2 1 1 0 0 0 0 0 0 0 1 0 0
0 0 0 0 0 0 0 0 0 0 0 0 0 0 0 0 0 0 0 0 0 9 19 9 0 2 0 4 3 2 0 0 0 0 0 0 1 0 1 4 3 2 1 1 3 1 2 0 0 1 2 2 1 1
0 0 0 0 0 0 0 0 0 0 0 0 0 0 0 0 0 0 0 0 0 0 0 0 1 4 6 1 0 0 1 1 3 1 2 0 1 1 2 1 1 1 0 1 1 2 2 2 1 1 1 1 1 1
0 0 0 0 0 0 0 0 0 0 0 0 0 0 0 0 0 0 0 2 1 0 0 0 2 3 3 2 2 3 3 1 2 2 4 2 2 1 1 1 1 1 1 1 1 1 1 1 1 0 0 0 1 1
0 0 0 0 0 0 0 0 0 0 0 0 0 0 0 0 0 5 4 0 1 0 0 0 0 0 0 0 0 1 1 2 2 3 3 2 3 2 2 2 2 2 1 1 1 0 1 1 1 0 0 0 0 1
0 0 0 0 0 0 0 0 0 0 0 0 0 0 0 1 7 4 4 0 0 0 0 1 0 0 2 1 0 3 4 3 4 2 2 1 4 3 3 2 1 2 2 1 1 1 1 0 0 0 0 0 2 0
0 0 0 0 0 0 0 0 0 0 0 1 0 1 3 9 6 0 0 1 0 0 0 1 1 1 1 1 3 2 1 0 1 3 4 3 2 1 0 0 0 0 1 0 0 0 0 0 0 0 0 0 0 0
0 0 0 0 0 0 0 0 0 3 1 1 1 3 3 4 0 1 2 2 0 0 0 1 0 1 1 1 4 4 3 1 0 0 0 0 1 1 1 0 0 0 0 0 0 0 0 0 0 0 0 0 0 0
0 0 0 0 0 0 0 5 2 3 0 2 1 3 2 2 1 0 0 0 0 0 1 1 1 2 1 2 2 2 1 0 1 0 0 0 0 0 0 0 0 0 0 0 0 0 0 0 0 0 0 0 0 0
0 0 0 0 0 1 4 1 1 4 1 5 6 7 3 3 0 0 0 0 0 0 0 1 1 4 1 1 1 1 1 0 0 0 0 0 0 0 0 0 0 0 0 0 0 0 0 0 0 0 0 0 0 0
1 1 2 0 2 2 2 2 1 0 0 5 4 4 1 0 0 0 0 0 0 0 0 0 0 1 1 1 0 0 0 0 0 0 0 0 0 0 0 0 0 0 0 0 0 0 0 0 0 0 0 0 0 0
0 0 0 0 1 1 0 0 0 0 1 0 0 0 0 0 0 0 0 0 0 0 0 0 0 0 0 0 0 0 0 0 0 0 0 0 0 0 0 0 0 0 0 0 0 0 0 0 0 0 0 0 0 0
0 0 1 0 0 0 1 5 0 0 0 0 0 0 0 0 0 0 0 0 0 0 0 0 0 0 0 0 0 0 0 0 0 0 0 0 0 0 0 0 0 0 0 0 0 0 0 0 0 0 0 0 0 0
2 0 2 0 0 1 0 0 0 0 0 0 0 0 0 0 0 0 0 0 0 0 0 0 0 0 0 0 0 0 0 0 0 0 0 0 0 0 0 0 0 0 0 0 0 0 0 0 0 0 0 0 0 0
2 0 2 4 1 3 7 3 0 0 0 0 0 0 0 0 0 0 0 0 0 0 0 0 0 0 0 0 0 0 0 0 0 0 0 0 0 0 0 0 0 0 0 0 0 0 0 0 0 0 0 0 0 0
10 4 0 0 5 0 0 0 0 0 0 0 0 0 0 0 0 0 0 0 0 0 0 0 0 0 0 0 0 0 0 0 0 0 0 0 0 0 0 0 0 0 0 0 0 0 0 0 0 0 0 0 0 0
0 0 0 0 9 18 5 7 14 12 1 0 0 0 0 0 0 0 0 0 0 0 0 0 0 0 0 0 0 0 0 0 0 0 0 0 0 0 0 0 0 0 0 0 0 0 0 0 0 0 0 0 0 0

GFSWCAN_con_sbcape_015.txt.gz
CAPE
48 36 26 17 18 5 2 13 6 25 6 7 12 11 11 10 5 0 0 0 0 0 0 0 0 0 0 0 0 0 0 0 0 16 1 0 0 0 0 3 0 0 0 0 0 2 84 612 964 583 978 1593 1158 1194
49 31 27 27 26 11 0 14 1 18 27 19 14 8 12 12 7 0 0 0 0 0 0 0 0 0 0 0 0 0 0 0 0 0 0 0 10 11 21 30 4 50 0 0 0 0 429 586 899 794 655 723 1101 1207
50 30 46 53 42 13 3 7 8 21 20 17 6 3 1 3 8 6 0 0 0 0 0 0 0 0 0 0 0 0 0 0 0 0 0 0 3 0 92 69 47 48 95 515 406 285 489 585 676 511 691 1092 1024 938
39 43 26 20 17 19 12 6 6 27 18 7 3 6 4 9 10 15 3 0 0 0 0 0 0 0 0 0 0 0 0 0 0 0 0 0 0 0 4 10 14 37 81 286 421 349 345 456 438 486 639 453 497 554
34 31 33 25 21 25 21 9 1 6 20 13 3 5 5 8 14 2 0 0 0 0 0 0 0 0 0 0 0 0 0 0 0 0 8 15 0 1 0 0 9 31 120 390 409 212 419 360 221 334 540 314 194 170
36 29 33 34 18 18 17 7 1 1 10 9 9 9 6 3 10 0 0 0 0 0 3 0 0 0 0 0 0 0 0 0 0 0 2 0 0 31 80 60 8 27 1 66 165 139 286 342 402 332 352 290 98 77
31 32 31 26 5 14 8 6 0 1 3 7 7 5 2 3 0 0 1 0 0 0 2 0 0 0 0 0 0 0 0 0 0 0 2 0 14 6 54 27 38 10 0 0 82 162 288 260 276 284 286 107 2 2
26 24 34 25 9 8 2 4 2 1 5 4 1 3 2 2 0 0 0 0 0 0 2 1 0 0 0 10 18 0 0 0 0 0 0 0 9 73 12 17 19 4 0 0 2 157 148 130 252 273 178 122 115 38
30 23 37 20 10 3 0 1 3 3 1 0 1 0 1 0 0 0 0 0 0 0 3 1 0 24 0 0 5 45 0 0 0 0 0 0 0 47 24 84 59 39 11 0 0 120 168 195 318 312 254 26 120 64
19 18 30 19 12 2 0 0 3 0 0 0 0 0 6 1 0 1 0 0 0 5 2 2 0 0 0 0 2 17 8 79 65 1 0 0 0 32 72 54 23 7 32 73 50 280 201 128 172 391 404 345 262 170
20 19 23 23 15 0 0 0 1 0 0 0 0 1 0 0 5 5 15 7 0 1 1 0 0 0 0 16 25 0 28 34 81 38 5 8 4 109 29 53 39 14 0 20 84 37 9 0 0 22 352 415 333 224
31 18 20 25 10 0 0 0 0 0 1 2 2 0 0 0 12 9 9 2 6 19 22 8 10 0 0 0 38 11 42 24 41 32 87 18 165 102 61 50 53 29 3 1 29 100 76 64 0 0 112 522 465 277
35 25 18 19 1 0 0 0 0 2 0 2 2 0 0 0 0 0 0 13 28 47 74 70 35 34 17 3 22 20 38 61 3 93 84 154 119 64 73 8 22 7 0 0 0 82 107 133 15 1 133 325 431 265
32 33 26 12 0 0 0 0 0 0 0 0 0 0 0 0 0 0 24 19 28 47 43 3 9 20 10 84 82 27 29 30 52 56 36 21 10 0 1 0 0 0 0 0 0 10 66 110 15 20 124 228 287 344
40 28 18 7 0 0 0 0 0 0 0 0 0 0 0 0 0 0 0 0 0 0 0 6 5 2 44 35 60 51 42 26 28 6 8 20 24 3 1 5 6 5 5 4 2 2 29 50 115 363 315 356 379 298
31 28 10 0 0 0 0 0 0 0 0 1 1 0 0 0 0 0 2 0 0 11 0 0 2 5 8 10 19 36 38 29 9 21 27 18 11 10 14 4 4 4 7 8 1 5 69 257 100 54 79 113 121 130
2 0 0 0 0 0 0 0 0 0 0 0 0 0 0 0 0 0 4 11 0 22 27 16 19 1 4 11 15 30 45 5 4 3 3 19 12 6 7 7 4 6 5 7 4 5 9 2 36 31 3 18 30 36
0 0 0 0 0 0 0 0 0 0 0 0 0 0 0 1 5 2 3 2 18 41 27 48 33 16 4 0 8 25 3 1 3 2 5 6 4 4 6 4 5 8 14 13 7 10 33 9 1 3 1 9 6 8
0 0 0 0 0 0 0 0 0 0 0 0 0 0 0 0 0 0 0 4 8 0 3 21 1 11 7 21 16 1 0 1 6 3 5 2 4 5 4 4 5 4 4 5 6 4 2 6 7 9 5 2 7 4
0 0 0 0 0 0 0 0 0 0 0 0 0 0 0 0 0 16 12 5 0 22 8 10 4 33 15 2 2 6 2 1 4 4 8 4 5 6 6 6 3 5 3 6 5 2 4 3 2 3 2 4 3 4
0 0 0 0 0 0 0 0 0 0 0 0 0 0 0 5 24 0 8 1 10 2 1 0 0 0 0 4 4 2 2 3 4 15 13 6 4 5 6 5 3 3 5 4 4 1 2 3 5 4 5 12 16 9
0 0 0 0 0 0 0 0 0 0 0 0 0 3 3 8 3 4 3 5 3 2 0 1 1 2 1 1 1 3 9 3 3 2 1 0 3 2 2 4 2 2 5 6 5 5 5 7 3 3 3 4 2 3
0 0 0 0 0 0 0 0 0 1 0 3 0 2 6 6 8 1 5 1 0 0 0 1 1 1 1 1 3 4 7 6 5 4 3 3 3 3 2 2 3 7 19 14 6 13 5 4 9 21 2 7 22 0
0 0 0 0 0 0 1 1 0 3 2 1 4 6 6 7 9 4 2 1 0 0 1 2 10 6 9 3 3 4 5 3 2 4 5 3 3 3 2 2 1 0 0 0 0 0 0 0 0 0 1 1 0 0
0 0 0 0 0 0 2 6 4 3 1 7 5 6 6 10 4 1 0 0 1 0 12 14 13 3 2 4 3 1 1 0 2 1 1 0 0 0 0 0 0 0 8 2 3 0 0 2 3 4 0 0 0 0
0 0 2 0 2 3 10 2 1 2 3 6 6 8 11 6 3 0 1 1 2 1 0 15 2 4 8 6 2 1 0 14 0 0 0 0 0 0 0 0 0 0 0 0 0 0 0 0 0 0 0 0 0 0
1 4 5 1 7 6 2 1 1 0 9 6 4 7 2 6 0 1 0 0 1 1 1 4 2 3 5 7 3 0 0 0 0 0 0 0 0 0 0 0 0 0 0 0 0 0 0 0 0 0 0 0 0 0
0 0 0 0 1 1 1 2 1 6 6 6 4 0 0 5 3 0 0 0 0 0 0 0 0 0 0 0 0 0 0 0 0 0 0 0 0 0 0 0 0 0 0 0 0 0 0 0 0 0 0 0 0 0
0 0 0 0 0 1 0 9 8 7 4 0 0 0 0 0 0 1 0 0 0 7 1 0 0 0 0 0 0 0 0 0 0 0 0 0 0 0 0 0 0 0 0 0 0 0 0 0 0 0 0 0 0 0
0 0 0 0 0 4 1 7 0 0 0 0 0 0 0 0 0 0 0 0 1 0 0 0 0 0 0 0 0 0 0 0 0 0 0 0 0 0 0 0 0 0 0 0 0 0 0 0 0 0 0 0 0 0
2 5 10 9 10 1 0 0 0 0 0 1 0 0 0 0 0 0 0 0 0 0 0 0 0 0 0 0 0 0 0 0 0 0 0 0 0 0 0 0 0 0 0 0 0 0 0 0 0 0 0 0 0 0
30 12 16 12 10 17 22 12 4 1 0 0 0 0 0 0 0 0 0 0 0 0 0 0 0 0 0 0 0 0 0 0 0 0 0 0 0 0 0 0 0 0 0 0 0 0 0 0 0 0 0 0 0 0
26 15 15 15 23 34 22 21 10 11 4 1 4 2 2 3 2 10 0 0 0 0 0 0 0 0 0 0 0 0 0 0 0 0 0 0 0 0 0 0 0 0 0 0 0 0 0 0 0 0 0 0 0 0